x

Aberporth (03502) Weather Station

10:00 - Wed 22nd Oct 2014 All times are BST. 1 hours from GMT.

  • Wind
    17mph
  • Ar Temp 53°f
  • Sea Pressure 1026mb
  • Aberporth
  • Aberporth

More Historic Weather Station data

Upgrade to MSW Pro to gain access to the past 30 days of data for over 8000 Wavebouys and Weather Stations around the globe.

Join Pro

Comparision Forecast

View Surf forecast
   
Qua 10/22 10:00 17
mph
1026mb 53f
9:00 22 29 mph 1026mb 53f
8:00 22 29 mph 1026mb 52f
7:00 18
mph
1026mb 52f
6:00 21 30 mph 1026mb 51f
5:00 22 36 mph 1025mb 52f
4:00 25 37 mph 1025mb 51f
3:00 28 38 mph 1026mb 51f
2:00 25 34 mph 1025mb 51f
1:00 23 39 mph 1025mb 50f
12:00 26 38 mph 1024mb 50f
Ter 10/21 11:00 25 37 mph 1024mb 50f
10:00 26 41 mph 1023mb 50f
9:00 31 43 mph 1022mb 50f
8:00 36 48 mph 1021mb 51f
7:00 36 47 mph 1019mb 51f
6:00 33 55 mph 1018mb 51f
5:00 41 57 mph 1017mb 51f
4:00 37 60 mph 1015mb 51f
3:00 43 61 mph 1014mb 53f
2:00 43
mph
1012mb 52f
1:00 41 55 mph 1011mb 52f
12:00 40 54 mph 1010mb 52f
11:00 36 54 mph 1009mb 51f
10:00 33 49 mph 1007mb 50f
9:00 36 54 mph 1006mb 51f
8:00 34 55 mph 1004mb 51f
7:00 38 56 mph 1003mb 52f
6:00 43 55 mph 1001mb 54f
5:00 40 56 mph 1000mb 55f
4:00 40 55 mph 999mb 56f
3:00 36 53 mph 1001mb 56f
2:00 28 45 mph 1002mb 54f
1:00 24 40 mph 1004mb 54f
12:00 25 37 mph 1005mb 54f
Seg 10/20 11:00 19 34 mph 1007mb 54f
10:00 17
mph
1008mb 54f
9:00 14
mph
1010mb 54f
8:00 17
mph
1010mb 53f
7:00 17
mph
1011mb 54f
6:00 15
mph
1012mb 54f
5:00 16
mph
1012mb 55f
4:00 17
mph
1013mb 55f
3:00 19 30 mph 1013mb 55f
2:00 17 32 mph 1014mb 55f
1:00 22 30 mph 1014mb 53f
12:00 16
mph
1015mb 53f
11:00 16 29 mph 1015mb 53f
10:00 26 36 mph 1015mb 52f
9:00 19 31 mph 1015mb 52f
8:00 17
mph
1015mb 52f
7:00 17
mph
1014mb 53f
6:00 18
mph
1015mb 53f
5:00 16
mph
1015mb 53f
4:00 16
mph
1015mb 53f
3:00 14
mph
1015mb 53f
2:00 16
mph
1015mb 54f
1:00 18
mph
1015mb 55f
12:00 17 29 mph 1015mb 55f
Dom 10/19 11:00 19 31 mph 1014mb 56f
10:00 24 34 mph 1014mb 56f
9:00 26 36 mph 1013mb 56f
8:00 23 32 mph 1012mb 55f
7:00 24 36 mph 1012mb 55f
6:00 24 40 mph 1011mb 56f
5:00 28 37 mph 1011mb 58f
4:00 29 38 mph 1011mb 58f
3:00 26 43 mph 1011mb 58f
2:00 25 37 mph 1010mb 59f
1:00 25 43 mph 1011mb 58f
12:00 29 39 mph 1010mb 59f
11:00 26 43 mph 1009mb 59f
10:00 24 38 mph 1009mb 58f
9:00 23 38 mph 1008mb 58f
8:00 23 36 mph 1008mb 57f
7:00 22 36 mph 1007mb 57f
6:00 23 37 mph 1007mb 58f
5:00 21 32 mph 1007mb 58f
4:00 19 31 mph 1007mb 58f
3:00 18 29 mph 1007mb 58f
2:00 22 31 mph 1007mb 58f
1:00 21 29 mph 1007mb 58f
12:00 19 32 mph 1007mb 58f
Sáb 10/18 11:00 22 37 mph 1007mb 58f
10:00 23 36 mph 1007mb 59f
9:00 21 33 mph 1006mb 59f
8:00 24 37 mph 1006mb 59f
7:00 22 31 mph 1006mb 60f
6:00 21 30 mph 1006mb 60f
5:00 22 33 mph 1005mb 61f
4:00 22 33 mph 1005mb 62f
3:00 23 34 mph 1005mb 62f
2:00 22 33 mph 1005mb 62f
1:00 22 36 mph 1004mb 62f
12:00 25 36 mph 1004mb 62f